This is the latest recevied weather packets stored in our database for station/object VE6HFD-WX. If no packets are shown the sender has not sent any weather packets the latest 10 day(s).
| Time | Temp. | Humidity | Pressure | Rain* | Wind** | Luminosity | Snow |
|---|---|---|---|---|---|---|---|
| 1778091067 | 12.78° C | 34% | 1011.8 hPa | 0 mm | - | - | - |
| 1778090737 | 12.78° C | 35% | 1011.9 hPa | 0 mm | - | - | - |
| 1778090437 | 12.22° C | 34% | 1011.9 hPa | 0 mm | - | - | - |
| 1778090107 | 12.22° C | 36% | 1012 hPa | 0 mm | - | - | - |
| 1778089807 | 11.67° C | 36% | 1012.1 hPa | 0 mm | - | - | - |
| 1778089477 | 11.67° C | 37% | 1012.2 hPa | 0 mm | - | - | - |
| 1778089147 | 11.67° C | 37% | 1012.3 hPa | 0 mm | - | - | - |
| 1778088847 | 11.11° C | 38% | 1012.4 hPa | 0 mm | - | - | - |
| 1778088517 | 11.67° C | 36% | 1012.5 hPa | 0 mm | - | - | - |
| 1778088217 | 11.67° C | 37% | 1012.6 hPa | 0 mm | - | - | - |
| 1778087887 | 11.11° C | 37% | 1012.7 hPa | 0 mm | - | - | - |
| 1778087557 | 11.11° C | 38% | 1012.8 hPa | 0 mm | - | - | - |
| 1778087227 | 11.11° C | 39% | 1012.8 hPa | 0 mm | - | - | - |
| 1778086927 | 10.56° C | 38% | 1013 hPa | 0 mm | - | - | - |
| 1778086597 | 10.56° C | 38% | 1013.2 hPa | 0 mm | - | - | - |
| 1778086267 | 10.56° C | 38% | 1013.2 hPa | 0 mm | - | - | - |
| 1778085937 | 10° C | 39% | 1013.2 hPa | 0 mm | - | - | - |
| 1778085637 | 10° C | 40% | 1013.3 hPa | 0 mm | - | - | - |
| 1778085307 | 10° C | 40% | 1013.3 hPa | 0 mm | - | - | - |
| 1778085007 | 10° C | 42% | 1013.2 hPa | 0 mm | - | - | - |
| 1778084677 | 9.44° C | 40% | 1013.4 hPa | 0 mm | - | - | - |
| 1778084377 | 9.44° C | 42% | 1013.5 hPa | 0 mm | - | - | - |
| 1778084077 | 9.44° C | 42% | 1013.5 hPa | 0 mm | - | - | - |
| 1778083747 | 9.44° C | 43% | 1013.5 hPa | 0 mm | - | - | - |
| 1778083447 | 9.44° C | 40% | 1013.7 hPa | 0 mm | - | - | - |
* Rain latest hour (hover to see other rain measurements)
** Current wind speed in m/s (hover to see current wind gust speed)